This is the latest recevied weather packets stored in our database for station/object PP5MGT-13. If no packets are shown the sender has not sent any weather packets the latest 10 day(s).
| Time | Temp. | Humidity | Pressure | Rain* | Wind** | Luminosity | Snow |
|---|---|---|---|---|---|---|---|
| 1777688233 | 20.56° C | 93% | 1016.4 hPa | - | - | - | - |
| 1777684630 | 20.56° C | 93% | 1016.3 hPa | - | - | - | - |
| 1777682827 | 21.11° C | 89% | 1016.3 hPa | - | - | - | - |
| 1777681926 | 21.67° C | 89% | 1016.3 hPa | - | - | - | - |
| 1777681026 | 21.67° C | 88% | 1016.3 hPa | - | - | - | - |
| 1777679224 | 22.22° C | 85% | 1016.4 hPa | - | - | - | - |
| 1777678323 | 22.22° C | 85% | 1016.4 hPa | - | - | - | - |
| 1777677422 | 22.78° C | 84% | 1016.4 hPa | - | - | - | - |
| 1777673819 | 23.33° C | 79% | 1015.9 hPa | - | - | - | - |
| 1777672017 | 24.44° C | 75% | 1015.6 hPa | - | - | - | - |
| 1777671115 | 24.44° C | 74% | 1015.5 hPa | - | - | - | - |
| 1777670214 | 24.44° C | 73% | 1015.5 hPa | - | - | - | - |
| 1777667509 | 26.11° C | 66% | 1015.3 hPa | - | - | - | - |
| 1777666609 | 26.11° C | 65% | 1015.3 hPa | - | - | - | - |
| 1777664807 | 27.22° C | 60% | 1015.3 hPa | - | - | - | - |
| 1777663906 | 27.22° C | 59% | 1015.3 hPa | - | - | - | - |
| 1777663005 | 27.22° C | 59% | 1015.3 hPa | - | - | - | - |
| 1777659401 | 26.67° C | 60% | 1015.9 hPa | - | - | - | - |
| 1777657600 | 26.67° C | 58% | 1016.4 hPa | - | - | - | - |
| 1777656699 | 26.67° C | 59% | 1016.5 hPa | - | - | - | - |
| 1777653095 | 26.11° C | 61% | 1017.5 hPa | - | - | - | - |
| 1777650393 | 25° C | 64% | 1018.5 hPa | - | - | - | - |
| 1777649492 | 25° C | 64% | 1018.7 hPa | - | - | - | - |
| 1777646789 | 24.44° C | 69% | 1019.8 hPa | - | - | - | - |
| 1777641384 | 21.67° C | 83% | 1021 hPa | - | - | - | - |
* Rain since midnight (hover to see other rain measurements)
** Current wind speed in m/s (hover to see current wind gust speed)